Regional Weather Roundup
Issued by NWS

Home | Current Version | Previous Version | Text Only | Print | Product List | Glossary Off
Versions: 1 2 3 4 5 6 7 8 9 10 11 12 13 14 15 16 17 18 19 20 21 22 23 24 25 26 27 28 29 30 31 32 33 34 35 36 37 38 39 40 41 42 43 44 45 46 47 48 49 50

000
ASUS43 KDTX 311810
RWRMI
MICHIGAN HOURLY REGIONAL WEATHER ROUNDUP
NATIONAL WEATHER SERVICE DETROIT/PONTIAC MI
200 PM EDT FRI JUL 31 2015

NOTE: "FAIR" INDICATES FEW OR NO CLOUDS BELOW 12,000 FEET WITH NO
SIGNIFICANT WEATHER AND/OR OBSTRUCTION TO VISIBILITY.

MIZ047>049-052>055-059>063-066>070-074>076-081>083-311900-
SOUTHEAST LOWER MICHIGAN

CITY           SKY/WX    TMP DP  RH WIND       PRES   REMARKS
ADRIAN         MOSUNNY   83  59  44 W17G30    29.93F
6HR MIN TEMP:  67; 6HR MAX TEMP:  84;

ALMA           MOSUNNY   83  54  36 W20G26    29.87F
ANN ARBOR      PTSUNNY   84  60  44 W13       29.90F
BAD AXE        PTSUNNY   80  57  45 W15G23    29.84F
6HR MIN TEMP:  65; 6HR MAX TEMP:  81;

DETROIT CITY   SUNNY     85  55  35 W12G24    29.88F
6HR MIN TEMP:  70; 6HR MAX TEMP:  86;

DETROIT        MOSUNNY   87  58  37 SW17      29.89F
6HR MIN TEMP:  70; 6HR MAX TEMP:  87;

FLINT          MOSUNNY   85  60  42 W17G25    29.87F
6HR MIN TEMP:  68; 6HR MAX TEMP:  86;

GROSSE ILE     MOSUNNY   86  55  35 W10G24    29.89F
HILLSDALE      MOSUNNY   84  59  43 W13G25    29.95F
6HR MIN TEMP:  69; 6HR MAX TEMP:  84;

HOWELL         PTSUNNY   86  56  35 W17G23    29.89F

CITY           SKY/WX    TMP DP  RH WIND       PRES   REMARKS
JACKSON        PTSUNNY   81  60  48 W14G24    29.91F
6HR MIN TEMP:  66; 6HR MAX TEMP:  83;

LAMBERTVILLE   PTSUNNY   85  58  40 W13G18    29.93F
6HR MIN TEMP:  69; 6HR MAX TEMP:  85;

LANSING        MOSUNNY   84  59  42 W20       29.90F
6HR MIN TEMP:  68; 6HR MAX TEMP:  85;

LAPEER         NOT AVBL
MASON          PTSUNNY   81  58  46 W13G24    29.90F
MONROE         PTSUNNY   84  61  44 W16G23    29.90F
MT. CLEMENS    MOSUNNY   85  56  37 W14G30    29.85F
6HR MIN TEMP:  71; 6HR MAX TEMP:  86;

PONTIAC        PTSUNNY   81  59  47 W13G20    29.88F
6HR MIN TEMP:  68; 6HR MAX TEMP:  84;

PORT HOPE        N/A     82  57  42 W14G25    29.80F
6HR MIN TEMP:  68; 6HR MAX TEMP:  83;

PORT HURON     PTSUNNY   81  59  47 W9        29.86F
TRI CITIES     MOSUNNY   84  58  40 W17       29.85F
6HR MIN TEMP:  67; 6HR MAX TEMP:  85;

YPSILANTI      PTSUNNY   86  57  37 W20       29.90F
6HR MIN TEMP:  73; 6HR MAX TEMP:  90;

$$
MIZ043>046-050>051-056>058-064>065-071>073-077>080-311900-
SOUTHWEST LOWER MICHIGAN

CITY           SKY/WX    TMP DP  RH WIND       PRES   REMARKS
BATTLE CREEK   MOSUNNY   85  61  44 W16G24    29.94F
6HR MIN TEMP:  70; 6HR MAX TEMP:  85;

BENTON HARBOR  SUNNY     81  63  54 W15       29.96F
6HR MIN TEMP:  73; 6HR MAX TEMP:  82;

BIG RAPIDS     PTSUNNY   82  48  30 W20G28    29.87F
6HR MIN TEMP:  68; 6HR MAX TEMP:  83;

COLDWATER      MOSUNNY   83  60  44 W18G25    29.93F
6HR MIN TEMP:  65; 6HR MAX TEMP:  83;

HOLLAND        SUNNY     82  61  48 W12G20    29.94F
6HR MIN TEMP:  73; 6HR MAX TEMP:  82;

GRAND RAPIDS   MOSUNNY   84  52  33 W20G28    29.91F
6HR MIN TEMP:  69; 6HR MAX TEMP:  85;

KALAMAZOO      MOSUNNY   83  59  44 NW16      29.94F
6HR MIN TEMP:  69; 6HR MAX TEMP:  85;

MARSHALL       MOSUNNY   84  61  45 W12G25    29.92F
MUSKEGON       MOSUNNY   82  60  47 W15G21    29.91F
6HR MIN TEMP:  73; 6HR MAX TEMP:  82;

$$
MIZ016>042-311900-
NORTHERN LOWER MICHIGAN

CITY           SKY/WX    TMP DP  RH WIND       PRES   REMARKS
ALPENA         PTSUNNY   80  54  40 W13G22    29.78F
6HR MIN TEMP:  67; 6HR MAX TEMP:  84; 6HR PCP: TRACE;

BEAVER ISLAND  SUNNY     76  58  53 SW12      29.83S
6HR MIN TEMP:  67; 6HR MAX TEMP:  77;

BELLAIRE       PTSUNNY   77  55  47 W7        29.85S
6HR MIN TEMP:  65; 6HR MAX TEMP:  77;

CADILLAC       PTSUNNY   81  56  41 W16G31    29.87S
CHARLEVOIX     PTSUNNY   74  60  61 W13G20    29.87S
6HR MIN TEMP:  68; 6HR MAX TEMP:  76;

FRANKFORT      MOCLDY    75  62  63 W13       29.88S
GAYLORD        MOSUNNY   77  52  41 W15G25    29.84F
6HR MIN TEMP:  62; 6HR MAX TEMP:  78;

GRAYLING       MOSUNNY   82  53  36 W15       29.84F
6HR MIN TEMP:  65; 6HR MAX TEMP:  82;

HARBOR SPRINGS PTSUNNY   72  62  71 SW12      29.83S
HOUGHTON LAKE  MOSUNNY   78  54  43 W17G26    29.85F
6HR MIN TEMP:  66; 6HR MAX TEMP:  81;

MANISTEE       MOSUNNY   75  57  53 W15G21    29.89S
OSCODA         PTSUNNY   86  53  32 W16G25    29.79S
PELLSTON       PTSUNNY   78  55  44 W18       29.82S
6HR MIN TEMP:  67; 6HR MAX TEMP:  80;

TRAVERSE CITY  PTSUNNY   78  57  48 W14       29.84S
6HR MIN TEMP:  69; 6HR MAX TEMP:  83;

$$
MIZ007>008-015-311900-
EASTERN UPPER MICHIGAN

CITY           SKY/WX    TMP DP  RH WIND       PRES   REMARKS
KINROSS        SUNNY     70  57  64 N17G23    29.80S
6HR MIN TEMP:  61; 6HR MAX TEMP:  73;

MACKINAC ISLAN SUNNY     73  59  61 W13G23    29.79F
NEWBERRY       MOSUNNY   76  54  46 NW13G24   29.81
S. S. MARIE    SUNNY     67  56  67 NW13G21   29.79
6HR MIN TEMP:  59; 6HR MAX TEMP:  70;

$$
MIZ004>006-011>014-085-311900-
CENTRAL UPPER MICHIGAN

CITY           SKY/WX    TMP DP  RH WIND       PRES   REMARKS
MANISTIQUE     PTSUNNY   79  54  41 W9        29.82R
ESCANABA       PTSUNNY   79  50  36 NW17G23   29.82S
6HR MIN TEMP:  63; 6HR MAX TEMP:  81;

MENOMINEE      MOSUNNY   79  54  41 NW13G23   29.86S
6HR MIN TEMP:  64; 6HR MAX TEMP:  79;

SAWYER-GWINN   MOSUNNY   77  48  36 W21G26    29.85F
$$
MIZ001>003-009>011-084-311900-
WESTERN UPPER MICHIGAN

CITY           SKY/WX    TMP DP  RH WIND       PRES   REMARKS
IRON MOUNTAIN  PTSUNNY   76  50  40 NW15G25   29.87F
6HR MIN TEMP:  63; 6HR MAX TEMP:  78;

HOUGHTON       SUNNY     69  54  58 NW21G29   29.87S
6HR MIN TEMP:  60; 6HR MAX TEMP:  70;

COPPER HARBOR    N/A     68  55  63 N17G30    29.84S
6HR MIN TEMP:  65; 6HR MAX TEMP:  69;

IRONWOOD       MOSUNNY   72  54  53 W15G25    29.92S
6HR MIN TEMP:  63; 6HR MAX TEMP:  72;

$$

ABBREVIATIONS USED IN REMARKS
   TC - TEMPERATURE IN CELSIUS
  WCI - WIND CHILL INDEX
   HX - HEAT INDEX
  VSB - VISIBILITY



USA.gov is the U.S. government's official web portal to all federal, state and local government web resources and services.